Location: Newark
(43.6583°N, 1.6617°E)
Time: 04:41:15
(UTC+00:00)

Transit 4A - Pass Details

Date: 28 August 2019
Orbit: 865 x 979 km, 66.8° (Epoch: 22 September)

Event Time Altitude Azimuth Distance (km) Brightness Sun altitude
Rises 22:28:23 0° 331° (NNW) 3,657 12.1 -33.3°
Reaches altitude 10° 22:33:31 10° 6° (N) 2,681 10.9 -33.7°
Maximum altitude 22:35:08 11° 22° (NNE) 2,601 10.7 -33.8°
Drops below altitude 10° 22:36:43 10° 37° (NE) 2,659 10.6 -33.9°
Enters shadow 22:40:20 - 65° (ENE) 3,233 10.8 -34.2°
Sets 22:41:43 0° 72° (ENE) 3,566 - -34.3°
